Regional Weather Roundup
Issued by NWS

Home | Current Version | Previous Version | Text Only | Print | Product List | Glossary On
Versions: 1 2 3 4 5 6 7 8 9 10 11 12 13 14 15 16 17 18 19 20 21 22 23 24 25 26 27 28 29 30 31 32 33 34 35 36 37 38 39 40 41 42 43 44 45 46 47 48 49 50
000
ASUS45 KTFX 300619
RWRMT
MONTANA HOURLY WEATHER ROUNDUP
NATIONAL WEATHER SERVICE GREAT FALLS MT
1219 AM MDT TUE SEP 30 2014

NOTE: "FAIR" INDICATES FEW OR NO CLOUDS BELOW 12000 FEET WITH NO
SIGNIFICANT WEATHER AND/OR OBSTRUCTIONS TO VISIBILITY.

* THESE STATIONS ARE NOT UNDER NWS QUALITY CONTROL. THEY DO NOT
   REPORT WEATHER SUCH AS PRECIPITATION OR FOG.

MTZ001>007-043-300700-
WEST OF THE DIVIDE
CITY           SKY/WX    TMP DP  RH WIND       PRES   REMARKS
KALISPELL      CLOUDY    55  48  77 SE12      29.76F
MISSOULA       CLOUDY    52  52 100 SE3       29.85S
BUTTE          LGT RAIN  46  43  89 NW7       29.88R
MULLAN PASS    CLOUDY    43  43 100 VRB5      29.88S
* ESSEX        N/A       54  44  69 NE3        N/A
* LINCOLN      N/A       49  45  86 SW5G13     N/A
* LOOKOUT PASS N/A       50  44  80 NE1        N/A
* POLSON       N/A       48  48 100 N/A        N/A
* RONAN APT    CLOUDY    52  48  86 N/A        N/A
* SEELEY LAKE  N/A       48  47  96 SE1        N/A
* THOMP F APT  MOCLDY    42  40  93 S3G10      N/A
* YAAK HILL    N/A       53  45  74 NE2        N/A
$$

MTZ008-052>055-300700-
SOUTHWEST MONTANA
CITY           SKY/WX    TMP DP  RH WIND       PRES   REMARKS
BOZEMAN        CLOUDY    50  45  83 N3        29.81S
DILLON         CLOUDY    52  43  72 SW12      29.86S
W YELLOWSTONE  CLOUDY    41  39  93 SW8       29.96R
* THREE FORKS  MOCLDY    54  27  35 N/A        N/A
* BOULDER HILL N/A       50  38  64 SW8        N/A
* RAYNOLDS PAS N/A       42  26  53 S12        N/A
* WHITEHALL    N/A       53  46  77 W3G12      N/A
* WISE RIVER   N/A       47  44  89 NW9G15     N/A
$$

MTZ009>010-012-014-046-048-049-054-300700-
EAST SLOPES AND CENTRAL MONTANA
CITY           SKY/WX    TMP DP  RH WIND       PRES   REMARKS
CUT BANK       CLOUDY    55  43  64 W15       29.64F
GREAT FALLS    CLOUDY    55  45  69 SW13      29.68S
HELENA         CLOUDY    57  43  60 W16G28    29.77S
MALMSTROM AFB  MOCLDY    57  45  64 SW17      29.69S
* CONRAD       MOCLDY    55  48  77 N/A        N/A
* EAST GLACIER N/A       52  41  66 W14G23     N/A
* MONARCH      N/A       51  35  54 SW10G24    N/A
* PENDROY      N/A       55  38  53 W16G22     N/A
* SAINT MARY   N/A       53  42  66 S10G23     N/A
* SWEET GRASS  N/A       56  43  62 S11G20     N/A
* WHITE SULPH  N/A       48  41  77 SE4        N/A
$$

MTZ011-013-016-021-035-040-045-047-050-051-300700-
NORTH CENTRAL MONTANA
CITY           SKY/WX    TMP DP  RH WIND       PRES   REMARKS
LEWISTOWN      PTCLDY    48  43  83 S5        29.73S
* CHINOOK      PTCLDY    50  48  93 E10       29.65F
* FORT BENTON  PTCLDY    48  45  89 NW3       29.67R
* DENTON       N/A       49  45  86 S9         N/A
* JUDITH GAP   N/A       41  41 100 SE13       N/A
* LOMA         N/A       48  47  96 NE8        N/A
$$

MTZ017>020-022>027-061-062-300700-
NORTHEAST MONTANA
CITY           SKY/WX    TMP DP  RH WIND       PRES   REMARKS
GLASGOW        CLOUDY    48  46  93 E15       29.74F
GLENDIVE       CLOUDY    52  48  86 E3        29.82F
JORDAN         PTCLDY    48  46  93 SE3       29.74F
SIDNEY         CLOUDY    54  48  80 SE5       29.84F
WOLF POINT     CLOUDY    54  48  80 SE6       29.79F
* BEAVER HILL  N/A       51  50  96 SE17G22    N/A
* CIRCLE       N/A       51  49  93 SE5G10     N/A
* LINDSAY DVD  N/A       49  48  96 SE11       N/A
* NAVAJO       N/A       48  47  96 S18        N/A
$$

MTZ028>042-056>058-300700-
SOUTHCENTRAL AND SOUTHEAST MONTANA
CITY           SKY/WX    TMP DP  RH WIND       PRES   REMARKS
BAKER          FOG       52  52 100 SE12      29.81F VSB 1 3/4
BILLINGS       CLEAR     50  46  86 S6        29.78S
LIVINGSTON     MOCLDY    54  43  67 W13       29.80R
MILES CITY     CLOUDY    54  50  86 SE13      29.79F
* LAUREL APT   CLEAR     46  45  96 N/A        N/A
* ROUNDUP APT  CLEAR     50  45  83 N/A        N/A
* ALZADA       N/A       51  51 100 E8         N/A
* LAME DEER    N/A       49  49 100 S6         N/A
* REED POINT   N/A       43  42  96 N/A        N/A
* ROSCOE HILL  N/A       49  27  43 SW2G9      N/A
$$

REGIONAL REPORTS...DAKOTAS
CITY           SKY/WX    TMP DP  RH WIND       PRES   REMARKS
WILLISTON      CLOUDY    54  48  80 SE8       29.85F
DICKINSON      CLOUDY    52  48  86 SE15      29.84F
BEACH          FOG       50  50 100 SE8       29.84S VSB 2 1/2
CROSBY         CLOUDY    52  50  93 SE14      29.86F
TIOGA          CLOUDY    50  50 100 SE14      29.90F
WATFORD CITY   CLOUDY    52  48  86 SE8       29.83F
BISMARCK       CLOUDY    55  48  77 E9        29.92F
GRAND FORKS    CLEAR     46  43  89 SE8       30.05S
FARGO          PTCLDY    46  43  89 SE7       30.05F
BUFFALO SD     CLOUDY    54  52  93 E9        29.75F
RAPID CITY     TSTM      54  52  93 N12       29.74F VSB 2 1/2
$$

REGIONAL REPORTS...WYOMING/IDAHO/WASHINGTON
CITY           SKY/WX    TMP DP  RH WIND       PRES   REMARKS
GILLETTE       CLOUDY    52  48  86 S7        29.80F
SHERIDAN       CLOUDY    54  50  86 N6        29.78F
CODY           PTCLDY    54  37  53 W16G22    29.84S
YELLOWSTONE LA MOCLDY    39  36  89 VRB3      30.03R
SALMON         CLOUDY    52  48  86 E7        29.91R
MULLAN PASS    CLOUDY    43  43 100 VRB5      29.88S
SAND POINT     MOCLDY    50  50 100 CALM      29.76S
SPOKANE        CLOUDY    63  45  52 SW13      29.76R
$$

REGIONAL REPORTS...ALBERTA
CITY           SKY/WX    TMP DP  RH WIND       PRES   REMARKS
CALGARY        MOCLDY    50  41  71 NW3       29.57F
LETHBRIDGE     CLOUDY    61  45  56 W20G26    29.56F
MEDICINE HAT   MOCLDY    55  48  77 S12       29.55F
EDMONTON       MOCLDY    39  39 100 VRB2      29.56S
WATERTON GATE  N/A       55  43  64 SW17G29    N/A
CARDSTON       N/A       57  45  64 W15G22     N/A
MILK RIVER     N/A       55  43  64 S6         N/A
$$

REGIONAL REPORTS...SASKATCHEWAN
CITY           SKY/WX    TMP DP  RH WIND       PRES   REMARKS
SWIFT CURRENT  CLOUDY    48  46  93 SE16      29.68R
REGINA         CLOUDY    48  45  89 SE16G25   29.83S
VAL MARIE      N/A       50  48  93 S18        N/A
ASSINIBOIA     N/A       48  46  93 S9         N/A
CORONACH       N/A       48  46  93 SE16G22    N/A

$$




USA.gov is the U.S. government's official web portal to all federal, state and local government web resources and services.